Location: Central Coast NSW, Australia
(33.2407°S, 151.4316°E)
Time: 06:25:02
(UTC+10:00)

Envisat - Pass Details

Date: 26 March 2019
Orbit: 764 x 766 km, 98.2° (Epoch: 20 April)

Event Time Altitude Azimuth Distance (km) Brightness Sun altitude
Rises 20:05:51 0° 165° (SSE) 3,266 6.2 -14.9°
Reaches altitude 10° 20:08:11 10° 162° (SSE) 2,332 5.4 -15.4°
Maximum altitude 20:13:19 70° 79° (ENE) 824 2.9 -16.5°
Drops below altitude 10° 20:18:23 10° 355° (N) 2,302 5.4 -17.5°
Sets 20:20:41 0° 352° (N) 3,221 6.2 -18.0°
